Regional Weather Roundup
Issued by NWS Albany, NY

Home | Current Version | Previous Version | Text Only | Print | Product List | Glossary On
Versions: 1 2 3 4 5 6 7 8 9 10 11 12 13 14 15 16 17 18 19 20 21 22 23 24 25 26 27 28 29 30 31 32 33 34 35 36 37 38 39 40 41 42 43 44 45 46 47 48 49 50
000
ASUS41 KALY 270510
RWRALY

NEW YORK STATE HOURLY WEATHER ROUNDUP
NATIONAL WEATHER SERVICE ALBANY NY
100 AM EDT WED MAY 27 2015

NOTE: "FAIR" INDICATES FEW OR NO CLOUDS BELOW 12,000 FEET WITH NO
SIGNIFICANT WEATHER AND/OR NO OBSTRUCTIONS TO VISIBILITY.

NYZ032-033-038>043-046>054-057>066-NYZ062>081-270600-
EAST


CITY           SKY/WX    TMP DP  RH WIND       PRES   REMARKS
ALBANY         CLOUDY    75  64  68 S9        30.10S
GLENS FALLS    NOT AVBL
POUGHKEEPSIE   CLEAR     71  63  75 SE3       30.13S
NEWBURGH       PTCLDY    73  66  78 VRB3      30.15S
MONTGOMERY     FOG       65  65 100 CALM      30.13S VSB 1/4
WHITE PLAINS   PTCLDY    65  60  84 CALM      30.16S
ISLIP          PTCLDY    65  60  84 SW13G25   30.18S
NEW YORK CITY  MOCLDY    74  61  63 SW12G21   30.16S
CENTRAL PARK   PTCLDY    73  61  65 VRB6G17   30.19S
$$

NYZ005>009-017-018-044>046-055-056-270600-
CENTRAL


CITY           SKY/WX    TMP DP  RH WIND       PRES   REMARKS
FULTON         CLEAR     72  64  76 CALM      30.03S
SYRACUSE       PTCLDY    71  64  78 SE3       30.03F
ROME           PTCLDY    72  64  76 E5        30.08S
ELMIRA         CLEAR     66  63  90 VRB3      30.07F
BINGHAMTON     CLEAR     69  63  81 S8        30.12F
MONTICELLO     CLEAR     63  63 100 SE3       30.18F
$$

NYZ026>034-041>043-270600-
NORTH


CITY           SKY/WX    TMP DP  RH WIND       PRES   REMARKS
WATERTOWN      PTCLDY    72  65  78 S8        30.00S
FORT DRUM      NOT AVBL
MASSENA        LGT RAIN  70  65  84 SW5       30.00F
SARANAC LAKE   MOCLDY    64  59  83 SW5       30.08F
PLATTSBURGH    MOCLDY    65  59  81 CALM      30.02S
$$

NYZ001>004-010>016-019>021-270600-
WEST


CITY           SKY/WX    TMP DP  RH WIND       PRES   REMARKS
NIAGARA FALLS  MOCLDY    73  62  68 S13G21    29.96F
BUFFALO        PTCLDY    74  62  66 S13       29.98F
DUNKIRK        LGT RAIN  74  63  68 S16G24    29.98F
JAMESTOWN      MOCLDY    66  61  82 S5        30.06F
WELLSVILLE     CLEAR     69  62  78 S9        30.11F
ROCHESTER      PTCLDY    71  63  75 S6        30.01S
PENN YAN       CLEAR     70  62  76 SW7       30.06S
$$

             KEY
       WCI = WIND CHILL INDEX
       VSB = VISIBILITY
       HX  = HEAT INDEX
$$


USA.gov is the U.S. government's official web portal to all federal, state and local government web resources and services.